CZ-6A DEB

基本信息
目录编号:
54933
目录名称:
CZ-6A DEB
国际标识:
2022-151RW
轨道中心:
EARTH
物体状态:
在轨
发射日期:
2022-11-11 UTC
轨道信息
数据来源: 国际轨道数据
星历时间: 2026-09-10T16:19:05+0800
半长轴: 7029.761km
偏心率: 0.00744
轨道倾角: 99.089°
近地点辐角: 67.972°
升交点赤经: 37.574°
平近点角: 292.937°
近地点: 599.322km
远地点: 703.926km
周期: 97.762分钟
每日圈数: 14.729634
详细信息
发射场:
TSC
轨道高度:
LEO
数据来源:
AOE Integration Group
参考系:
TEME
时间系统:
UTC
历元类型:
SGP4
2D轨道图
3D轨道图
轨道高度分析图
轨道倾角分析图
轨道综合分析图
查看轨道综合分析图